Regional Weather Roundup
Issued by NWS

Home | Current Version | Previous Version | Graphics & Text | Print | Product List | Glossary On
Versions: 1 2 3 4 5 6 7 8 9 10 11 12 13 14 15 16 17 18 19 20 21 22 23 24 25 26 27 28 29 30 31 32 33 34 35 36 37 38 39 40 41 42 43 44 45 46 47 48 49 50
941
ASUS43 KLMK 220002
RWRKY
KENTUCKY REGIONAL WEATHER ROUNDUP
NATIONAL WEATHER SERVICE LOUISVILLE KY
800 PM EDT SAT OCT 21 2017

NOTE "FAIR" INDICATES FEW OR NO CLOUDS BELOW 12,000 FEET
WITH NO SIGNIFICANT WEATHER AND/OR OBSTRUCTIONS TO VISIBILITY.

KYZ001>023-026-027-061>063-070>075-220100-
WESTERN AND SOUTH CENTRAL KENTUCKY

CITY           SKY/WX    TMP DP  RH WIND       PRES   REMARKS
PADUCAH        CLEAR     73  58  59 SE9       30.07S
HENDERSON      CLOUDY    72  55  55 SE7       30.13R
OWENSBORO      PTCLDY    69  55  60 SE8       30.15R
HOPKINSVILLE   NOT AVBL
BOWLING GREEN  CLEAR     62  55  77 SE5       30.17S
GLASGOW        NOT AVBL
$$

KYZ024-025-028>034-038-045-046-053-220100-
NORTH CENTRAL KENTUCKY

CITY           SKY/WX    TMP DP  RH WIND       PRES   REMARKS
LOUISVILLE/SDF MOCLDY    69  49  48 SE3       30.18R
LOUISVILLE/LOU PTCLDY    63  52  67 CALM      30.19R
FORT KNOX      PTCLDY    59  50  72 CALM      30.18R
$$

KYZ035>037-039>044-047>052-055>060-089>105-220100-
NORTHEAST KENTUCKY

CITY           SKY/WX    TMP DP  RH WIND       PRES   REMARKS
LEXINGTON      CLOUDY    67  48  50 SE6       30.23R
COVINGTON      MOCLDY    63  51  65 SE6       30.21R
FRANKFORT      CLOUDY    66  46  48 SE5       30.20R
$$

KYZ054-064>069-076>088-106>120-220100-
SOUTHEAST KENTUCKY

CITY           SKY/WX    TMP DP  RH WIND       PRES   REMARKS
JACKSON        CLEAR     68  50  52 CALM      30.26R
LONDON         PTCLDY    60  51  72 CALM      30.25R
SOMERSET       NOT AVBL
MIDDLESBORO    CLEAR     60  52  77 W3        30.27R
MONTICELLO     PTCLDY    66  48  52 E7        30.25S
$$





USA.gov is the U.S. government's official web portal to all federal, state and local government web resources and services.